Home   Weather   Brisbane   Past weeks
Flag for Australia

Past Weather in Brisbane, Queensland, Australia — Yesterday and Last 2 Weeks

Now
79 °F

Sunny.


Feels Like: 77 °F
Forecast: 70 / 49 °F
Wind: 8 mph from North

Location: Brisbane Airport M. O

Current Time: Jul 24, 2019 at 2:39:35 pm

Latest Report: Jul 24, 2019 at 2:00 pm


Visibility: 10 mi

Pressure: 30.07 "Hg

Humidity: 12%

Dew Point: 21 °F

Location of BrisbaneLocation

Past Weather in Brisbane — Graph

°F

Brisbane Temperature Yesterday

Maximum temperature yesterday: 73 °F (at 1:00 pm)
Minimum temperature yesterday: 52 °F (at 3:00 am)
Average temperature yesterday: 60 °F

High & Low Weather Summary for the Past Weeks

 TemperatureHumidityPressure
High77 °F (Jul 12, 2:30 pm)100% (Jul 9, 11:00 pm)30.24 "Hg (Jul 9, 11:00 pm)
Low41 °F (Jul 16, 6:00 am)16% (Jul 14, 2:30 pm)29.92 "Hg (Jul 18, 3:00 pm)
Average58 °F64%30.09 "Hg
* Reported Jul 9 1:30 pm — Jul 24 1:30 pm, Brisbane. Weather by CustomWeather, © 2019

Note: Actual official high and low records may vary slightly from our data, if they occured in-between our weather recording intervals... More about our weather records

Advertising

Brisbane Weather History for the Previous 24 Hours

Scroll right to see more
 ConditionsComfort  
Time TempWeatherWind HumidityBarometerVisibility
1:30 pm
Wed, Jul 24
73 °FSunny.8 mph44%30.09 "Hg10 mi
1:00 pm72 °FSunny.10 mph50%30.09 "Hg10 mi
12:00 pm75 °FSunny.7 mph24%30.12 "Hg10 mi
11:30 am72 °FPassing clouds.5 mph33%30.15 "HgN/A
11:00 am70 °FPassing clouds.5 mph43%30.15 "HgN/A
10:30 am68 °FPassing clouds.6 mph53%30.18 "HgN/A
10:00 am66 °FSunny.3 mph68%30.18 "Hg10 mi
9:30 am63 °FSunny.5 mph73%30.18 "Hg10 mi
9:00 am59 °FSunny.5 mph82%30.18 "Hg10 mi
8:30 am55 °FSunny.1 mph88%30.18 "Hg10 mi
8:00 am54 °FPassing clouds.6 mph88%30.15 "HgN/A
7:30 am50 °FSunny.No wind94%30.15 "Hg10 mi
7:00 am48 °FFog.No wind100%30.15 "HgN/A
6:30 am46 °FFog.2 mph100%30.15 "HgN/A
6:00 am48 °FFog.1 mph100%30.15 "HgN/A
5:30 am48 °FFog.No wind100%30.12 "HgN/A
5:00 am50 °FFog.3 mph100%30.12 "HgN/A
4:30 am50 °FFog.5 mph100%30.12 "HgN/A
4:00 am52 °FFog.5 mph100%30.12 "HgN/A
3:30 am52 °FFog.3 mph100%30.12 "HgN/A
3:00 am50 °FFog.5 mph100%30.12 "HgN/A
2:36 am52 °FFog.5 mph100%30.12 "Hg1 mi
2:30 am52 °FFog.6 mph100%30.12 "HgN/A
2:00 am52 °FFog.5 mph100%30.12 "HgN/A
1:30 am54 °FFog.3 mph100%30.12 "HgN/A
1:00 am55 °FFog.5 mph94%30.12 "HgN/A
12:30 am55 °FClear.5 mph94%30.12 "Hg10 mi
12:00 am57 °FClear.5 mph94%30.12 "Hg10 mi
11:30 pm
Tue, Jul 23
55 °FClear.7 mph94%30.12 "Hg10 mi
11:00 pm59 °FPassing clouds.7 mph88%30.12 "HgN/A
10:30 pm59 °FClear.8 mph88%30.12 "Hg10 mi
10:00 pm57 °FClear.5 mph94%30.15 "Hg10 mi
9:30 pm59 °FClear.7 mph94%30.12 "Hg10 mi
9:00 pm59 °FClear.6 mph94%30.12 "Hg10 mi
8:30 pm59 °FClear.5 mph100%30.12 "Hg10 mi
8:00 pm61 °FClear.6 mph88%30.12 "Hg10 mi
7:30 pm61 °FClear.6 mph94%30.12 "Hg10 mi
7:00 pm61 °FClear.8 mph94%30.12 "Hg10 mi
6:30 pm61 °FClear.9 mph94%30.09 "Hg10 mi
6:00 pm63 °FClear.8 mph88%30.09 "Hg10 mi
5:30 pm64 °FClear.9 mph83%30.09 "Hg10 mi
5:00 pm64 °FSunny.9 mph78%30.07 "Hg10 mi
4:30 pm66 °FSunny.10 mph73%30.07 "Hg10 mi
4:00 pm68 °FSunny.12 mph64%30.07 "Hg10 mi
3:30 pm70 °FSunny.12 mph60%30.07 "Hg10 mi
3:00 pm72 °FPassing clouds.10 mph61%30.07 "HgN/A
2:00 pm72 °FPassing clouds.10 mph65%30.07 "HgN/A
Weather by CustomWeather, © 2019

See weather overview